East Milton, MA

7:54 AM EDT on April 23, 2018 (GMT -0400)
East Milton

Weather History for KMQE - February, 2013

Change the Weather History Date:

Tuesday, February 26, 2013

  Actual Average (KOWD) Record (KOWD)
Temperature  
Mean Temperature 36 °F -  
Max Temperature 43 °F 39 °F 62 °F (2002)
Min Temperature 30 °F 22 °F 1 °F (2005)
Degree Days  
Heating Degree Days 28    
Moisture  
Dew Point 27 °F    
Average Humidity 71    
Maximum Humidity 85    
Minimum Humidity 47    
Precipitation  
Precipitation 0.00 in - - ()
Sea Level Pressure  
Sea Level Pressure 30.29 in    
Wind  
Wind Speed 4 mph (ESE)    
Max Wind Speed 15 mph    
Max Gust Speed 23 mph    
Averages and records for this station are not official NWS values.
T = Trace of Precipitation, MM = Missing Value Source: NWS Daily Summary

Daily Weather History Graph

Daily Weather History Graph

Search for Another Location

Airport or City:

Astronomy

Feb. 26, 2013 Rise Set
Actual Time 6:24 AM EST 5:31 PM EST
Civil Twilight 5:55 AM EST 5:59 PM EST
Nautical Twilight 5:23 AM EST 6:31 PM EST
Astronomical Twilight 4:51 AM EST 7:04 PM EST
Moon 6:46 PM EST (2/26) 6:23 AM EST (2/26)
Length of Visible Light 12h 03m
Length of Day
11h 06m
Full, 99% of the Moon is Illuminated
Feb 26
Full
Mar 4
Last Quarter
Mar 11
New
Mar 19
First Quarter
Mar 27
Full

Hourly Weather History & Observations

Time (EST) Temp. Windchill Dew Point Humidity Pressure Visibility Wind Dir Wind Speed Gust Speed Precip Events Conditions
12:54 AM 33.1 °F - 28.9 °F 85% 30.26 in - Calm Calm - N/A   Unknown
1:54 AM 32.0 °F - 28.0 °F 85% 30.26 in - Calm Calm - N/A   Unknown
2:54 AM 30.9 °F - 27.0 °F 85% 30.26 in - Calm Calm - N/A   Unknown
3:54 AM 33.1 °F - 28.0 °F 82% 30.29 in - Calm Calm - N/A   Unknown
4:54 AM 32.0 °F - 28.0 °F 85% 30.30 in - Calm Calm - N/A   Unknown
5:54 AM 30.9 °F - 27.0 °F 85% 30.31 in - Calm Calm - N/A   Unknown
6:54 AM 34.0 °F - 28.9 °F 82% 30.32 in - Calm Calm - N/A   Unknown
7:54 AM 35.1 °F 32.2 °F 28.9 °F 78% 30.33 in - East 3.5 mph - N/A   Unknown
8:54 AM 37.9 °F - 30.0 °F 73% 30.34 in - Calm Calm - N/A   Unknown
9:54 AM 39.9 °F 33.9 °F 28.9 °F 65% 30.34 in - East 9.2 mph - N/A   Unknown
10:54 AM 41.0 °F 35.2 °F 27.0 °F 57% 30.34 in - ESE 9.2 mph - N/A   Unknown
11:54 AM 43.0 °F 38.8 °F 24.1 °F 47% 30.33 in - Variable 6.9 mph 18.4 mph N/A   Unknown
12:54 PM 39.9 °F 34.5 °F 25.0 °F 55% 30.33 in - ESE 8.1 mph - N/A   Unknown
1:54 PM 39.9 °F 33.4 °F 25.0 °F 55% 30.32 in - ESE 10.4 mph - N/A   Unknown
2:54 PM 41.0 °F 37.1 °F 25.0 °F 53% 30.30 in - Variable 5.8 mph - N/A   Unknown
3:54 PM 39.0 °F 31.8 °F 24.1 °F 55% 30.30 in - East 11.5 mph 18.4 mph N/A   Unknown
4:54 PM 37.0 °F 30.4 °F 24.1 °F 59% 30.29 in - East 9.2 mph - N/A   Unknown
5:54 PM 35.1 °F 27.9 °F 24.1 °F 64% 30.29 in - ESE 9.2 mph - N/A   Unknown
6:54 PM 34.0 °F 26.0 °F 25.0 °F 70% 30.27 in - East 10.4 mph - N/A   Unknown
7:54 PM 34.0 °F 25.5 °F 27.0 °F 75% 30.27 in - ESE 11.5 mph - N/A   Unknown
8:54 PM 34.0 °F 26.0 °F 27.0 °F 75% 30.25 in - East 10.4 mph - N/A   Unknown
9:54 PM 34.0 °F 24.6 °F 27.0 °F 75% 30.22 in - East 13.8 mph - N/A   Unknown
10:54 PM 35.1 °F 25.5 °F 28.0 °F 76% 30.19 in - East 15.0 mph 23.0 mph N/A   Unknown
11:54 PM 36.0 °F 27.5 °F 30.0 °F 79% 30.16 in - East 12.7 mph 21.9 mph N/A   Unknown